SCP
0 0 0 0 0 0 0 0 0 0 0 0 0 0 0 0 0 0 0 0 0 0 0 0 0 0 0 0 0 0 0 0 0 0 0 0 0 0 0 0 0 0 0
0 0 0 0 0 0 0 0 0 0 0 0 0 0 0 0 0 0 0 0 0 0 0 0 0 0 0 0 0 0 0 0 0 0 0 0 0 0 0 0 0 0 0
0 0 0 0 0 0 0 0 0 0 0 0 0 0 0 0 0 0 0 0 0 0 0 0 0 0 0 0 0 0 0 0 0 0 0 0 0 0 0 0 0 0 0
0 0 0 0 0 0 0 0 0 0 0 0 0 0 0 0 0 0 0 0 0 0 0 0 0 0 0 0 0 0 0 0 0 0 0 0 0 0 0 0 0 0 0
0 0 0 0 0 0 0 0 0 0 0 0 0 0 0 0 0 0 0 0 0 0 0 0 0 0 0 0 0 0 0 0 0 0 0 0 0 0 0 0 0 0 0
0 0 0 0 0 0 0 0 0 0 0 0 0 0 0 0 0 0 0 0 0 0 0 0 0 0 0 0 0 0 0 0 0 0 0 0 0 0 0 0 0 0 0
0 0 0 0 0 0 0 0 0 0 0 0 0 0 0 0 0 0 0 0 0 0 0 0 0 0 0 0 0 0 0 0 0 0 0 0 0 0 0 0 0 0 0
0 0 0 0 0 0 0 0 0 0 0 0 0 0 0 0 0 0 0 0 0 0 0 0 0 0 0 0 0 0 0 0 0 0 0 0 0 0 0 0 0 0 0
0 0 0 0 0 0 0 0 0 0 0 0 0 0 0 0 0 0 0 0 0 0 0 0 0 0 0 0 0 0 0 0 0 0 0 0 0 0 0 0 0 0 0
0 0 0 0 0 0 0 0 0 0 0 0 0 0 0 0 0 0 0 0 0 0 0 0 0 0 0 0 0 0 0 0 0 0 0 0 0 0 0 0 0 0 0
0 0 0 0 0 0 0 0 0 0 0 0 0 0 0 0 0 0 0 0 0 0 0 0 0 0 0 0 0 0 0 0 0 0 0 0 0 0 0 0 0 0 0
0 0 0 0 0 0 0 0 0 0 0 0 0 0 0 0 0 0 0 0 0 0 0 0 0 0 0 0 0 0 0 0 0 0 0 0 0 0 0 0 0 0 0
0 0 0 0 0 0 0 0 0 0 0 0 0 0 0 0 0 0 0 0 0 0 0 0 0 0 0 0 0 0 0 0 0 0 0 0 0 0 0 0 0 0 0
0 0 0 0 0 0 0 0 0 0 0 0 0 0 0 0 0 0 0 0 0 0 0 0 0 0 0 0 0 0 0 0 0 0 0 0 0 0 0 0 0 0 0
0 0 0 0 0 0 0 0 0 0 0 0 0 0 0 0 0 0 0 0 0 0 0 0 0 0 0 0 0 0 0 0 0 0 0 0 0 0 0 0 0 0 0
0 0 0 0 0 0 0 0 0 0 0 0 0 0 0 0 0 0 0 0 0 0 0 0 0 0 0 0 0 0 0 0 0 0 0 0 0 0 0 0 0 0 0
0 0 0 0 0 0 0 0 0 0 0 0 0 0 0 0 0 0 0 0 0 0 0 0 0 0 0 0 0 0 0 0 0 0 0 0 0 0 0 0 0 0 0
0 0 0 0 0 0 0 0 0 0 0 0 0 0 0 0 0 0 0 0 0 0 0 0 0 0 0 0 0 0 0 0 0 0 0 0 0 0 0 0 0 0 0
0 0 0 0 0 0 0 0 0 0 0 0 0 0 0 0 0 0 0 0 0 0 0 0 0 0 0 0 0 0 0 0 0 0 0 0 0 0 0 0 0 0 0
0 0 0 0 0 0 0 0 0 0 0 0 0 0 0 0 0 0 0 0 0 0 0 0 0 0 0 0 0 0 0 0 0 0 0 0 0 0 0 0 0 0 0
0 0 0 0 0 0 0 0 0 0 0 0 0 0 0 0 0 0 0 0 0 0 0 0 0 0 0 0 0 0 0 0 0 0 0 0 0 0 0 0 0 0 0
0 0 0 0 0 0 0 0 0 0 0 0 0 0 0 0 0 0 0 0 0 0 0 0 0 0 0 0 0 0 0 0 0 0 0 0 0 0 0 0 0 0 0
0 0 0 0 0 0 0 0 0 0 0 0 0 0 0 0 0 0 0 0 0 0 0 0 0 0 0 0 0 0 0 0 0 0 0 0 0 0 0 0 0 0 0
0 0 0 0 0 0 0 0 0 0 0 0 0 0 0 0 0 0 0 0 0 0 0 0 0 0 0 0 0 0 0 0 0 0 0 0 0 0 0 0 0 0 0
0 0 0 0 0 0 0 0 0 0 0 0 0 0 0 0 0 0 0 0 0 0 0 0 0 0 0 0 0 0 0 0 0 0 0 0 0 0 0 0 0 0 0
0 0 0 0 0 0 0 0 0 0 0 0 0 0 0 0 0 0 0 0 0 0 0 0 0 0 0 0 0 0 0 0 0 0 0 0 0 0 0 0 0 0 0
Wind_Speed
4 6 6 5 6 7 8 8 8 8 8 9 9 9 10 10 11 11 12 12 12 11 12 12 12 13 13 13 14 14 14 14 14 14 13 13 13 13 12 11 10 11 14
6 7 7 6 6 7 8 8 8 8 8 8 9 9 9 10 10 11 11 11 12 12 11 11 11 12 12 13 13 13 14 13 13 12 11 12 13 12 13 12 12 10 13
7 8 9 6 6 7 8 8 8 8 8 8 8 8 9 9 9 10 10 11 11 11 11 11 11 11 12 12 12 12 13 13 11 8 6 9 11 12 12 12 13 13 12
7 8 8 7 7 8 8 8 8 8 8 8 8 8 8 8 9 9 9 10 10 10 10 10 10 11 11 11 12 12 12 11 9 3 6 8 9 11 12 12 12 12 12
7 7 8 7 7 8 8 8 8 8 8 8 8 8 8 8 8 9 9 9 9 9 10 10 10 10 10 10 11 11 11 9 5 5 8 8 8 11 11 11 11 11 11
7 7 9 6 8 8 8 8 8 8 8 8 8 8 8 8 8 8 8 8 8 8 9 9 9 9 9 10 10 10 9 6 4 7 7 7 8 10 10 10 10 10 11
6 6 8 6 7 8 8 7 7 7 7 7 7 7 7 8 8 8 8 8 7 8 8 8 8 8 8 9 9 9 8 3 5 6 6 7 8 9 9 9 10 10 10
6 6 7 6 7 7 7 7 7 6 7 7 7 7 7 7 7 7 7 7 7 7 7 7 7 7 8 8 8 8 6 2 5 6 6 6 8 8 9 9 9 9 9
5 5 6 6 6 7 6 5 5 5 5 6 6 7 6 6 7 7 6 6 6 6 6 6 6 7 7 7 7 7 5 1 4 4 5 5 7 7 8 8 8 8 8
4 4 4 4 5 5 6 5 4 4 4 5 6 6 6 5 6 6 6 6 5 5 5 6 6 6 6 6 6 6 4 2 4 4 4 5 6 6 6 6 7 7 7
4 3 3 3 3 4 4 5 4 4 4 4 5 6 4 4 5 5 6 5 4 4 5 5 6 6 5 6 5 5 4 2 4 3 3 5 5 5 5 5 5 5 6
3 3 2 2 2 2 3 3 3 3 3 3 4 5 3 3 3 3 5 5 4 4 4 5 5 5 4 4 4 4 2 3 3 3 3 4 4 4 5 5 4 4 4
3 3 2 2 2 2 2 2 1 1 2 2 3 3 3 2 2 2 3 4 4 3 3 4 4 3 3 2 3 3 3 2 2 2 3 3 3 4 4 4 3 3 3
1 2 2 2 2 2 1 2 2 1 2 1 2 3 2 2 2 2 2 3 3 2 2 2 2 3 3 4 4 3 3 2 2 2 3 3 2 2 3 3 3 3 2
1 1 2 2 2 2 2 1 1 1 2 2 2 3 3 2 2 2 2 2 2 2 3 2 3 4 4 4 3 3 3 3 3 3 3 3 1 1 2 2 2 2 1
2 1 2 2 2 1 1 1 1 1 1 2 2 2 3 3 2 3 3 2 2 2 3 3 3 3 3 3 3 3 3 3 3 3 2 3 2 1 1 1 1 1 0
2 1 1 2 2 2 2 2 1 1 1 2 2 3 3 3 3 3 3 2 2 2 3 3 3 3 3 3 3 3 3 3 3 3 3 2 2 2 1 1 1 1 1
2 1 1 1 1 2 2 2 1 1 1 1 2 2 3 3 4 3 3 3 2 2 3 3 3 3 3 3 3 2 3 2 3 3 3 2 2 2 2 2 1 1 2
1 1 1 1 1 1 1 1 1 1 2 1 1 2 2 3 4 4 3 3 3 3 3 3 3 4 4 3 3 2 2 3 3 3 3 3 2 2 2 2 2 1 1
0 1 1 1 1 1 1 1 1 1 1 1 1 2 2 3 4 4 3 4 4 4 3 4 4 4 3 3 2 2 2 3 3 3 3 3 3 3 3 2 2 2 2
0 1 1 1 1 1 1 1 1 1 1 1 1 2 3 3 4 4 4 5 5 5 5 5 4 4 4 3 3 2 3 3 4 3 3 4 4 3 3 3 3 2 2
0 1 1 1 1 1 1 1 2 2 2 2 2 2 3 3 4 4 4 4 5 5 6 6 5 4 3 4 3 3 3 4 4 4 4 4 4 3 4 4 4 3 2
1 2 1 2 2 1 1 1 0 1 1 2 2 2 3 3 4 4 5 5 5 6 6 6 6 7 5 5 4 4 3 4 2 3 5 5 5 4 4 4 5 4 4
1 2 2 2 1 1 1 1 1 2 2 3 3 3 3 4 4 4 5 6 6 5 6 7 7 6 6 5 5 5 4 2 3 2 3 4 5 5 5 4 5 5 4
1 1 2 2 1 1 1 1 3 3 3 3 3 4 4 4 4 5 5 5 6 6 7 8 8 8 6 7 5 4 5 3 4 4 4 3 4 5 5 5 4 4 4
1 1 2 2 2 1 1 2 3 3 4 4 4 4 4 3 4 5 5 5 5 5 7 7 8 9 8 8 7 6 5 5 5 5 5 4 4 3 4 4 5 4 4
Wind_Direction
150 144 131 128 127 120 114 115 112 109 107 104 101 100 101 101 100 98 95 92 89 90 90 92 90 88 89 89 87 85 83 81 79 80 79 80 80 80 77 74 77 77 73
150 146 135 135 133 127 120 117 114 111 108 107 105 103 101 100 100 99 97 93 90 88 89 89 91 91 90 89 88 88 85 82 80 79 82 85 81 80 78 72 67 75 74
144 143 144 136 134 130 123 120 116 113 110 109 108 108 105 100 100 99 98 95 92 89 87 89 91 94 92 91 90 90 88 85 83 79 89 90 86 82 80 77 77 76 75
143 143 144 132 133 130 126 124 120 116 113 110 109 110 108 104 101 99 99 97 94 92 89 89 93 95 95 94 93 93 90 86 83 79 86 82 85 83 81 79 79 78 76
140 142 132 134 133 131 128 127 124 119 116 115 112 111 109 105 103 100 100 100 99 95 92 90 93 97 98 98 97 97 95 91 87 87 84 84 84 84 82 80 80 80 79
139 139 131 136 136 133 130 127 127 123 122 119 116 112 111 107 104 103 100 101 101 101 98 97 95 98 101 102 102 101 100 101 115 88 84 85 85 86 83 82 81 80 78
135 134 132 128 132 131 128 126 126 125 124 122 119 116 112 111 108 105 102 102 104 107 106 103 101 101 104 107 107 104 100 93 98 92 86 83 82 85 86 84 83 81 79
134 135 134 125 119 120 123 122 121 123 125 123 121 115 110 110 111 112 109 106 108 110 111 109 110 108 109 113 112 108 104 108 107 99 93 89 82 87 87 85 82 80 79
123 130 136 143 137 123 112 113 119 123 124 124 121 113 106 105 110 111 109 106 103 108 114 116 113 114 113 116 116 112 103 43 111 101 98 93 90 90 89 85 82 81 78
111 113 125 144 149 144 136 113 106 115 117 120 118 107 102 110 111 112 114 99 99 103 114 121 119 119 120 115 117 118 123 187 112 107 99 94 96 100 94 90 86 82 81
114 117 125 132 144 149 145 129 130 121 109 129 131 119 136 139 133 134 110 105 108 109 116 125 125 122 124 120 120 135 170 149 121 104 96 94 106 107 101 96 91 88 84
137 139 144 149 141 147 145 150 160 155 154 167 156 153 155 148 132 127 117 116 115 111 120 122 128 144 163 146 140 175 165 148 130 118 97 100 118 116 110 102 97 94 90
157 151 166 174 163 146 152 164 164 167 171 173 163 159 155 149 140 147 148 146 146 150 147 145 170 172 170 156 164 172 162 155 144 128 108 100 118 119 115 111 108 106 100
164 175 175 184 179 171 172 173 174 173 176 174 175 172 166 163 169 165 174 174 173 174 173 189 194 178 180 178 177 175 173 168 161 143 114 101 115 132 128 125 121 113 106
200 218 197 198 193 193 182 183 173 183 185 187 193 193 185 183 186 181 189 189 191 183 185 200 204 188 191 187 181 181 187 178 172 166 141 113 98 140 151 148 140 132 130
231 230 240 209 202 203 191 197 181 189 194 198 203 212 201 194 194 198 196 197 199 199 198 206 209 200 198 192 190 194 200 191 184 183 172 153 141 148 173 181 163 167 142
267 234 266 229 206 198 195 201 181 196 205 210 212 217 210 204 199 205 205 203 206 206 205 209 210 205 194 191 200 205 209 215 206 197 190 191 172 153 172 192 195 235 271
301 265 278 260 220 212 208 210 195 190 202 215 223 221 214 208 204 205 210 213 212 210 209 208 207 201 196 197 205 207 215 218 224 211 200 202 211 198 170 170 210 251 268
289 281 248 268 231 218 217 212 203 190 208 211 221 227 219 212 207 206 215 217 209 210 211 209 215 217 205 200 204 214 226 221 224 217 211 209 208 216 208 159 177 200 278
294 274 235 268 249 215 204 205 202 194 213 215 221 235 239 225 216 211 212 214 208 210 211 208 212 226 219 198 193 216 235 232 229 222 223 214 211 219 228 218 207 191 219
16 315 225 251 252 205 210 205 216 227 238 237 240 242 233 229 225 221 221 212 209 211 212 211 208 216 210 192 193 215 232 239 239 229 233 227 218 221 225 230 237 238 214
356 320 308 268 233 208 229 225 230 248 251 248 247 247 246 233 228 224 221 218 212 210 211 211 205 216 209 203 211 206 222 221 224 241 232 233 235 223 229 235 238 240 246
336 298 291 305 257 223 228 213 250 270 265 256 247 249 251 246 238 232 225 223 219 215 213 213 209 213 213 212 218 219 219 226 222 211 232 233 232 236 236 233 238 238 242
296 294 305 302 277 239 215 225 228 235 254 263 264 259 257 247 239 241 235 228 222 223 220 219 217 223 215 211 214 234 253 257 227 217 214 230 236 239 240 236 238 235 236
296 297 309 297 288 276 244 253 250 256 266 269 268 263 264 254 242 239 242 237 230 230 227 224 220 223 223 218 210 211 223 234 247 244 241 230 231 235 237 238 238 235 232
290 291 312 292 289 297 267 260 263 269 275 271 267 266 265 262 248 241 241 240 238 236 231 229 226 225 225 223 219 213 211 211 215 227 240 238 244 239 237 237 236 234 234